Theta_e
316 317 318 319 319 319 319 318 318 318 319 317 317 317 317 317 316 316 316 315 315 315 315 309 307 305 303 300 299 300 300 299 298 297 296 296 296 296 296 296 296 297 296 296
316 316 317 317 317 318 318 318 318 319 319 314 316 317 317 317 317 316 315 315 315 315 314 309 306 304 302 300 300 299 299 299 298 297 296 296 295 295 295 296 296 296 296 295
317 317 315 316 317 317 317 317 318 319 319 314 314 316 317 316 314 314 313 313 313 314 314 309 305 302 301 300 300 300 299 299 298 296 296 295 295 294 294 295 295 296 295 295
316 316 316 315 315 316 317 317 318 318 318 319 314 318 318 317 316 315 313 313 314 312 312 309 305 302 302 302 301 300 299 298 298 297 296 295 295 294 294 294 295 295 294 294
315 316 314 315 316 316 317 312 315 316 317 318 317 318 317 312 314 313 314 314 315 314 310 308 305 306 304 304 303 301 300 298 297 297 296 295 294 294 293 294 294 294 293 293
314 310 313 315 310 312 310 312 312 312 314 318 317 318 317 317 314 314 315 314 314 312 309 307 305 304 305 304 303 302 301 299 298 297 296 295 294 293 293 293 294 293 293 292
316 314 312 310 313 310 311 315 318 322 321 321 318 316 317 317 314 314 314 314 314 311 309 307 305 307 307 306 306 301 302 302 298 297 296 295 294 292 292 292 292 292 292 291
316 317 314 310 314 318 313 316 320 324 320 320 313 316 316 316 315 313 313 312 311 310 309 308 308 309 309 307 305 302 303 304 299 297 295 294 293 292 291 291 291 292 291 290
315 316 309 310 310 314 314 313 315 320 319 319 316 317 318 315 313 313 311 310 310 308 308 309 309 310 309 308 308 307 303 301 301 298 295 294 292 291 290 291 291 290 290 289
315 315 314 305 306 307 310 311 315 315 322 319 317 318 318 315 314 313 312 311 311 310 308 307 308 309 309 309 307 305 303 302 300 298 296 294 292 291 290 290 290 290 289 288
314 315 314 307 309 313 309 311 310 311 317 318 318 317 314 315 314 314 314 312 312 312 309 308 308 308 309 309 307 306 304 301 299 297 295 293 291 290 289 290 290 289 288 288
312 314 315 314 313 309 311 313 313 314 315 314 315 316 314 313 313 312 312 311 311 312 311 310 309 309 309 309 307 305 303 300 300 296 293 292 290 289 289 289 289 289 288 288
311 313 316 314 311 306 309 311 312 313 313 315 317 316 314 314 314 314 311 311 311 310 310 310 309 309 310 309 307 304 302 301 297 293 291 290 289 289 289 289 289 288 288 287
310 315 314 315 315 313 312 311 311 311 313 314 314 314 314 314 313 313 313 313 312 311 310 310 308 308 308 308 306 304 301 299 295 293 290 289 288 289 289 288 288 288 287 287
310 312 312 313 313 314 312 313 312 311 311 312 312 313 313 313 313 313 313 312 311 311 310 309 308 308 307 306 306 303 300 298 295 291 289 288 288 288 288 288 288 287 287 286
310 312 311 313 312 312 312 312 312 312 312 313 313 312 312 312 312 312 312 311 311 310 310 309 309 309 307 307 306 304 301 297 294 291 289 287 287 288 288 288 288 287 286 285
308 311 312 314 313 313 314 313 313 312 313 314 314 314 314 314 313 313 313 313 312 311 311 310 309 308 307 307 307 304 301 296 293 290 288 287 287 288 288 288 287 286 285 285
311 310 312 315 315 315 314 312 312 313 313 314 314 313 313 314 313 313 312 312 311 311 310 309 309 308 308 307 305 302 298 296 292 289 287 287 287 287 288 287 286 286 285 284
311 312 314 315 315 314 314 314 313 313 314 313 313 313 313 312 311 311 311 311 310 309 309 309 308 308 308 306 304 300 295 292 290 289 288 286 286 287 287 286 285 284 284 283
310 311 313 314 316 317 314 313 312 312 314 312 312 311 311 311 311 311 311 310 310 310 310 309 309 308 306 305 301 301 299 294 290 288 287 286 286 286 286 285 284 284 283 281
312 311 312 313 314 314 313 312 310 314 315 313 311 310 310 310 310 310 310 309 309 309 309 308 308 308 307 305 302 299 298 295 293 289 286 286 286 286 285 284 284 283 281 281
314 314 313 312 313 314 312 312 313 313 312 312 312 311 310 310 310 309 309 309 309 308 308 307 307 307 306 303 300 297 297 294 289 288 286 285 285 285 285 284 283 282 280 279
313 309 308 311 313 312 309 309 306 307 310 309 309 307 307 307 308 308 308 307 308 307 306 305 305 304 303 301 299 296 293 292 288 285 285 285 285 285 284 282 281 280 279 278
302 303 305 304 305 304 304 304 305 306 303 303 305 303 304 305 306 307 306 306 307 306 306 304 301 301 300 298 295 291 291 290 286 284 285 285 286 284 282 281 280 278 278 278
297 297 298 297 296 299 299 299 300 299 300 299 300 300 301 301 301 303 304 305 305 306 307 305 303 300 298 295 292 289 288 288 284 285 285 285 284 282 281 280 278 277 277 276
294 294 294 295 296 297 297 296 293 293 294 294 294 294 294 297 300 301 303 304 305 305 306 306 304 300 296 292 290 288 286 285 284 285 284 284 284 282 281 278 277 277 276 275
Wind_Speed
7 8 17 18 18 22 22 21 23 24 8 9 19 23 22 28 30 30 34 35 31 29 24 23 29 31 32 32 34 33 35 34 33 32 29 28 27 25 21 18 18 17 17 16
6 16 22 18 10 15 20 20 25 21 7 5 16 22 21 22 29 35 33 33 24 19 19 21 28 33 35 34 36 35 34 35 35 32 30 29 26 26 24 23 21 20 19 18
22 22 2 5 14 15 18 21 22 21 13 13 14 19 17 14 19 26 35 29 21 19 20 23 28 31 33 36 37 37 37 37 36 34 33 31 29 26 26 25 24 22 19 19
19 22 20 16 20 18 19 12 18 19 11 14 1 17 15 15 18 13 28 31 22 18 19 22 28 32 34 34 35 36 37 38 37 37 36 33 31 29 28 27 26 23 21 21
12 8 9 15 15 11 8 2 5 8 12 17 16 15 14 6 9 13 18 30 19 15 21 26 31 28 28 29 33 35 36 38 39 40 38 36 35 33 30 29 26 24 22 23
20 2 5 6 2 2 7 2 3 4 5 12 20 18 8 7 6 8 13 19 12 10 17 20 23 23 26 28 32 35 36 39 41 41 40 39 37 35 34 32 29 25 24 24
13 23 5 5 6 4 9 6 6 9 6 16 13 12 19 11 13 15 21 22 9 11 18 21 24 25 27 31 32 34 33 36 41 43 43 42 39 37 35 32 29 28 26 23
9 11 18 15 18 10 14 10 6 11 15 24 5 13 12 13 14 20 19 13 10 14 19 24 24 24 26 29 31 32 32 34 40 43 44 42 40 38 36 33 30 28 25 21
10 14 5 12 4 9 9 8 3 8 1 8 16 26 19 6 10 11 8 11 18 17 22 24 23 26 27 29 29 30 34 36 38 43 44 44 42 39 37 33 30 27 23 23
13 16 7 7 3 5 6 2 5 5 6 16 27 24 17 10 14 9 8 13 20 14 21 24 27 30 30 28 29 32 35 37 37 42 45 45 42 38 36 33 29 24 23 23
11 8 8 6 12 16 7 7 7 4 10 11 17 12 6 2 5 3 7 12 13 13 20 24 28 29 30 28 34 34 35 37 39 43 46 46 43 40 36 32 28 25 23 23
10 3 10 23 11 7 12 19 21 10 16 9 14 27 6 4 5 3 8 13 16 15 18 20 27 32 33 34 37 38 37 39 41 44 47 47 44 39 35 31 28 24 22 23
7 5 7 13 10 6 8 15 16 20 13 24 17 26 9 22 17 17 13 15 18 21 21 25 28 31 35 39 38 41 41 41 43 45 47 46 44 40 36 32 27 24 23 23
4 5 13 20 22 6 13 18 18 20 16 23 25 28 33 28 23 29 34 32 28 27 30 32 31 36 38 40 40 41 42 41 43 45 48 46 46 40 35 30 26 24 24 25
4 10 19 23 28 30 25 20 13 21 23 20 27 23 24 31 35 32 40 37 32 37 33 29 34 38 40 41 43 42 41 43 45 47 47 47 44 39 35 30 27 26 25 23
9 7 14 20 25 28 32 29 27 32 27 30 30 30 34 37 52 39 45 49 33 44 35 39 44 43 42 46 45 43 43 46 46 47 46 47 46 41 35 31 29 26 24 21
8 7 8 17 23 26 21 33 36 36 38 30 29 38 36 36 36 35 38 42 34 42 37 36 38 38 42 45 45 44 44 45 46 45 44 48 44 38 35 31 28 25 22 19
14 17 13 14 15 20 25 26 32 39 36 36 29 30 34 34 44 36 41 41 39 41 43 38 37 35 38 37 38 37 40 43 45 43 45 46 44 39 36 32 27 23 20 18
25 21 13 11 16 22 7 20 24 28 35 32 30 36 36 44 33 34 55 49 38 45 44 39 34 33 33 30 29 33 37 41 41 43 44 45 42 38 35 30 24 20 19 17
29 24 18 16 16 21 18 27 25 26 18 19 28 28 30 24 11 19 50 33 29 32 32 30 26 27 29 27 27 30 36 39 42 44 46 45 41 35 31 26 21 19 17 15
9 14 23 21 19 15 16 16 9 22 25 29 31 28 28 20 20 40 40 30 25 24 25 26 26 25 26 28 30 33 36 40 42 42 46 45 41 36 31 24 21 18 15 14
28 13 13 13 20 27 16 20 30 31 33 33 29 30 26 33 34 34 40 40 36 36 33 33 32 30 30 31 31 35 38 40 44 44 47 44 39 33 27 24 21 17 14 12
16 13 7 10 8 11 15 11 22 24 18 20 22 26 30 26 26 28 24 31 35 36 31 32 32 33 33 35 36 39 41 44 42 48 47 42 35 30 27 23 19 15 11 10
9 6 4 12 11 18 27 29 22 18 25 32 37 34 29 30 33 37 36 40 39 38 36 35 34 35 36 36 37 39 43 41 44 49 43 40 35 31 26 22 17 13 11 9
12 15 19 26 30 27 32 43 40 48 42 40 33 34 37 37 40 40 46 48 43 43 44 43 41 38 38 37 40 44 44 43 51 47 46 41 35 30 25 20 16 12 10 8
14 20 15 19 26 21 25 36 44 45 47 45 41 43 46 42 41 41 43 49 48 47 49 49 46 41 41 39 44 46 44 49 54 51 47 41 34 29 25 22 18 13 9 6
Wind_Direction
196 229 241 254 246 250 274 283 276 272 272 219 246 260 269 275 278 274 275 274 266 256 246 227 221 211 211 210 213 216 219 220 222 224 226 230 234 236 238 240 247 256 264 275
216 239 254 277 285 270 264 265 267 273 287 213 271 270 268 268 268 274 275 271 272 262 223 219 213 207 211 214 219 218 219 221 225 226 228 231 233 235 236 239 245 251 262 278
241 254 113 266 261 253 247 250 260 272 296 231 273 275 259 249 258 262 270 268 267 249 225 210 205 208 210 216 219 220 222 224 227 227 229 231 232 235 236 238 244 252 264 273
253 264 260 254 255 253 261 261 253 268 280 274 82 287 280 286 264 246 268 273 267 232 218 209 202 207 216 218 222 224 225 227 229 229 231 234 237 238 238 238 242 251 261 271
238 229 222 234 244 237 239 348 248 256 257 279 261 270 277 171 263 232 248 266 274 235 221 201 207 214 215 217 224 227 227 229 231 231 232 234 234 235 236 239 244 252 262 271
257 95 240 234 111 238 124 219 221 229 267 257 260 243 283 217 214 235 251 246 260 226 201 200 204 206 211 219 223 224 227 232 233 233 233 234 234 235 236 239 244 250 259 269
227 228 195 188 208 168 204 213 271 256 225 264 280 260 255 271 246 254 263 268 239 203 189 190 199 207 212 218 221 219 225 234 233 232 233 232 233 234 237 239 243 248 257 266
250 245 192 197 220 251 198 214 222 267 266 282 112 263 265 234 232 246 251 243 216 202 199 201 208 217 218 220 221 219 225 232 235 234 233 232 232 233 234 237 242 249 257 266
222 248 126 180 183 188 167 201 255 273 237 280 267 267 262 163 202 230 227 230 233 215 212 213 219 224 220 221 221 225 227 231 236 237 234 232 232 231 232 235 241 248 257 266
257 259 201 125 187 223 237 93 189 201 259 259 278 278 277 243 229 212 233 239 253 227 225 228 232 228 223 227 225 228 231 236 237 238 236 233 231 230 230 233 241 248 258 268
236 231 234 140 201 217 188 223 220 293 239 251 270 268 54 6 151 270 224 244 244 228 227 236 239 234 230 235 231 231 232 233 234 237 235 232 228 226 228 233 237 245 257 269
216 266 232 235 245 256 255 232 218 219 229 235 254 271 146 142 108 189 245 244 263 248 245 243 244 238 234 239 235 234 234 233 237 235 233 230 226 224 226 230 236 246 258 267
177 207 237 259 244 169 211 228 240 237 249 245 243 255 235 274 284 279 253 243 247 257 247 253 242 236 245 242 238 237 236 236 233 232 231 228 221 221 224 228 237 246 256 265
341 190 226 238 245 262 217 227 224 227 234 246 244 262 280 282 280 275 273 270 265 254 253 251 242 253 256 250 247 242 239 236 233 231 230 228 220 220 222 227 236 248 255 263
305 251 251 254 265 273 275 267 227 230 240 246 263 263 266 277 273 273 279 276 281 276 270 256 247 248 256 254 249 243 241 237 233 230 229 225 218 218 219 224 233 243 253 263
217 252 244 246 250 261 266 264 267 264 262 260 255 261 261 259 268 274 270 276 277 276 275 269 265 263 254 258 257 251 241 235 232 231 228 220 215 215 218 223 231 241 251 262
191 207 212 243 238 240 248 242 244 248 251 251 251 248 259 264 261 259 275 275 276 276 276 274 273 266 265 261 260 254 241 233 231 228 225 217 213 214 219 224 231 238 248 263
220 217 231 256 256 230 237 242 231 242 248 255 252 254 254 258 269 287 275 268 272 272 275 277 277 271 267 264 256 247 238 234 230 226 223 214 212 212 218 225 231 239 249 261
224 230 239 237 232 251 291 225 221 226 238 242 254 255 258 268 272 271 265 264 259 267 273 277 277 273 270 262 250 241 231 228 225 223 218 211 211 213 217 223 231 239 250 264
228 225 230 234 241 242 234 226 240 243 246 229 241 251 260 266 239 254 265 266 264 273 277 274 273 271 268 257 241 230 227 224 224 222 212 207 209 214 221 224 230 241 253 269
212 224 229 234 248 251 246 246 236 244 254 238 242 253 264 264 253 261 275 273 270 270 268 268 268 269 259 248 239 230 225 225 223 216 206 204 206 210 216 223 229 238 252 270
234 220 221 236 243 250 225 240 236 247 257 264 270 260 261 267 271 261 263 268 271 271 271 266 257 259 252 244 235 229 225 219 217 207 200 203 203 208 216 221 227 233 247 267
261 282 306 288 288 337 10 338 329 352 2 335 340 338 346 335 320 308 295 289 288 284 273 260 257 248 243 239 233 228 224 219 211 198 195 197 201 208 213 218 220 229 243 264
279 331 287 322 342 322 310 315 334 351 352 332 321 321 325 323 317 312 312 303 295 287 283 273 257 244 240 236 230 227 225 215 202 193 192 195 202 206 209 213 217 227 241 257
284 305 293 289 288 290 297 298 298 302 301 299 298 299 301 298 296 300 301 295 292 293 289 280 269 261 251 234 224 223 218 208 193 190 193 197 200 201 203 207 211 217 230 250
272 278 274 280 296 304 301 301 305 306 300 298 296 296 291 284 280 282 280 282 286 282 282 276 268 257 249 231 222 220 212 196 191 190 190 194 197 198 204 199 199 205 212 237